User: anonymous   Login
Location: Unspecified
(0.0000°N, 0.0000°E)
Time: 15:46:21
(UTC+00:00)
Language:

Kosmos-887 - Orbit

View from above orbital plane
View from above orbital plane
View from above satellite
View from above satellite

Ground track
Ground track

The orbit data is extracted from the following two-line orbital elements,

1  9637U 76128A   18203.43884484 +.00000035 +00000-0 +19912-4 0  9990
2  9637 082.9417 144.7799 0046111 037.7228 101.2560 13.76214342086609
Epoch (UTC): 22 July 2018 10:31:56
Eccentricity: 0.0046111
inclination: 82.9417°
perigee height: 943 km
apogee height: 1011 km
right ascension of ascending node: 144.7799°
argument of perigee: 37.7228°
revolutions per day: 13.76214342
mean anomaly at epoch: 101.2560°
orbit number at epoch: 8660

The dashed part of the orbit path shows where the satellite is in the earth's shadow,  

DLR